Wind_Speed
18 21 22 19 19 22 22 22 21 22 23 23 23 22 20 19 19 19 18 18 18 18 19 19 20 20 20 19 19 19 18 18 18 17 17 17 17 17 17 17 16 17
17 19 20 20 21 22 21 22 22 22 23 24 24 23 20 20 21 21 20 19 18 18 18 19 20 20 20 20 20 19 18 18 18 18 18 17 17 17 16 15 15 16
15 19 21 20 21 21 20 21 21 20 21 23 24 22 20 20 21 21 20 19 18 18 17 19 20 21 21 20 20 19 18 18 18 17 17 16 15 15 14 14 14 14
16 20 22 21 20 20 19 20 20 20 20 21 22 21 20 20 20 20 20 19 19 20 19 19 20 21 20 20 20 19 18 18 18 17 16 15 14 13 12 12 12 12
16 19 20 21 21 19 19 19 19 20 20 19 20 20 20 21 21 21 21 20 19 20 19 18 20 21 19 19 18 19 19 18 17 17 16 15 13 12 11 11 11 11
17 18 17 18 21 21 21 21 20 21 20 19 19 20 21 22 22 22 22 21 19 19 18 18 20 20 17 17 18 18 18 17 16 16 15 14 13 12 11 11 12 11
19 18 14 17 22 22 23 23 22 21 20 19 20 21 22 22 23 23 23 21 20 18 18 18 19 18 16 16 17 17 16 15 15 15 14 13 13 13 12 11 11 11
17 16 14 18 23 23 24 24 22 21 20 19 20 22 22 22 23 24 24 22 20 18 17 16 16 16 15 16 17 16 16 15 14 14 14 13 13 12 12 12 11 10
13 14 18 22 23 24 24 22 21 20 19 20 21 21 22 23 23 24 23 22 20 18 17 16 15 15 15 16 17 16 16 15 14 14 13 13 13 12 11 11 11 10
12 13 18 22 23 23 24 22 20 21 20 21 22 22 23 23 23 23 22 20 20 18 17 17 17 16 15 16 16 16 15 15 14 13 12 12 11 11 10 11 11 11
14 14 15 19 22 22 21 20 20 20 21 23 24 23 24 23 22 22 21 20 20 19 18 18 17 17 16 15 15 15 13 13 13 12 11 10 9 9 10 10 11 11
14 15 15 17 20 20 19 20 20 22 23 25 26 25 25 23 22 22 21 20 21 20 18 17 17 17 16 15 15 14 13 12 13 12 10 9 9 10 9 10 10 11
12 14 16 16 17 17 18 20 22 24 25 26 27 25 25 24 23 22 21 21 22 20 18 17 17 16 15 15 15 14 13 13 13 12 10 10 10 10 9 9 9 9
13 12 15 16 16 16 18 20 23 26 26 27 26 24 23 24 23 22 21 22 22 20 18 17 17 16 16 15 15 14 13 13 13 12 11 10 11 11 10 9 8 8
13 13 13 14 18 21 21 23 25 27 27 26 26 25 23 23 23 23 22 23 21 19 17 17 17 16 16 15 14 14 14 13 12 12 12 12 13 12 11 9 9 9
12 13 13 14 20 24 24 24 26 27 27 27 26 25 24 24 24 23 22 21 19 17 17 17 17 16 16 14 14 14 14 13 12 12 13 14 14 14 13 11 11 11
11 14 15 17 20 24 25 25 27 28 27 27 27 25 23 22 23 23 22 19 17 16 17 17 17 17 16 15 14 14 13 13 13 14 15 15 16 16 15 14 13 14
12 13 17 18 20 23 24 26 27 28 27 26 26 25 24 22 22 23 21 19 18 17 17 17 17 16 16 15 15 14 12 12 13 15 16 17 17 17 17 17 18 19
14 12 15 18 21 22 22 23 26 27 27 27 26 25 25 23 22 23 21 20 20 18 18 18 17 16 16 15 15 14 13 13 14 16 17 18 19 19 19 21 22 23
17 11 9 13 18 19 19 20 23 24 24 25 25 24 24 23 23 23 22 22 20 18 18 18 17 16 16 16 16 15 14 14 16 18 20 21 21 22 23 24 23 22
19 12 5 1 5 11 16 19 19 20 20 20 21 22 22 22 23 24 23 22 21 19 19 18 17 17 16 15 16 16 15 17 19 20 22 23 23 24 24 23 22 21
21 16 11 8 7 7 12 17 18 18 17 18 19 20 19 19 21 23 23 22 21 20 20 19 18 17 16 15 16 17 18 19 21 22 23 23 22 22 21 21 20 19
22 18 16 13 12 13 14 16 19 19 17 17 17 18 18 17 18 23 24 22 22 21 20 20 18 17 16 15 15 17 19 21 23 23 23 22 19 18 19 19 19 18
23 20 18 16 16 17 16 17 20 22 20 19 19 20 20 18 19 23 25 23 22 21 20 20 19 17 18 18 17 18 20 22 24 24 23 23 21 18 17 17 18 17
24 22 20 18 18 20 21 20 22 23 23 23 23 23 23 20 20 24 26 23 22 22 22 21 20 19 19 19 19 20 21 22 25 25 25 25 24 22 19 17 17 17
25 23 22 20 19 19 22 24 25 25 26 26 26 26 26 23 22 24 25 23 22 23 22 21 21 20 19 20 20 20 21 22 24 25 26 25 23 23 21 19 17 17
Wind_Direction
271 258 242 236 238 238 241 244 242 242 244 243 241 238 232 225 220 214 213 218 223 224 220 218 216 215 215 215 213 212 212 213 210 209 211 214 218 222 227 229 228 224
267 254 246 247 243 234 234 241 243 246 249 247 245 243 237 229 223 216 210 209 217 223 225 221 215 213 213 208 206 208 208 208 207 207 210 212 216 221 225 227 223 219
254 244 245 250 247 240 240 242 243 248 252 252 249 246 241 234 225 218 211 207 210 214 220 225 215 207 208 205 203 206 205 204 204 206 207 209 213 217 217 218 216 213
248 241 243 249 251 251 250 245 242 246 249 251 251 246 241 235 227 218 212 209 211 209 209 220 218 206 202 204 204 205 205 205 206 206 206 208 210 212 212 212 212 210
254 250 247 249 250 251 251 245 242 246 247 247 248 244 236 232 228 222 215 210 210 207 199 209 220 212 202 203 204 203 203 204 206 205 205 207 208 210 211 208 206 206
272 266 260 256 251 246 245 242 238 239 242 243 243 237 230 229 228 223 216 209 204 202 196 201 215 214 205 203 203 202 201 200 202 203 204 207 208 207 206 203 203 203
285 281 278 269 259 250 244 241 238 233 234 238 236 230 226 225 225 219 212 206 199 194 191 197 209 210 205 204 203 204 204 202 203 204 205 206 204 201 198 197 199 198
293 286 275 261 253 247 241 239 237 234 232 230 227 225 223 220 220 214 208 203 196 187 181 189 203 208 207 205 205 207 207 204 205 205 204 204 201 199 197 195 197 197
300 275 260 250 241 237 239 240 236 235 233 226 222 222 219 216 215 211 206 202 194 184 178 185 198 206 208 208 208 209 207 205 206 205 204 202 199 199 199 198 196 194
307 276 262 254 244 240 243 244 237 233 231 224 221 219 215 213 212 208 205 201 193 184 181 187 195 199 203 207 207 206 206 204 202 201 202 203 200 199 199 198 195 192
313 293 275 258 250 247 247 246 240 235 231 222 217 216 211 208 205 202 202 201 195 188 185 189 195 198 201 203 202 202 203 201 197 195 196 197 197 201 201 197 194 191
313 300 284 258 245 243 244 242 236 231 227 220 215 212 206 200 197 197 198 200 199 193 187 189 194 199 204 204 201 201 200 196 192 191 191 189 190 197 200 196 191 188
307 300 287 267 244 235 236 235 228 224 221 217 214 207 199 195 194 196 199 201 200 194 190 193 195 198 205 207 203 200 196 192 191 190 188 184 186 192 193 190 187 184
299 292 289 277 257 241 236 230 222 218 215 212 209 205 199 196 194 195 196 197 196 193 193 196 197 200 205 205 200 198 195 193 191 191 187 182 184 189 187 185 185 185
305 290 285 275 257 243 235 227 219 213 209 206 203 200 198 195 192 193 194 192 190 189 191 196 199 202 203 200 198 197 196 196 197 196 191 184 182 183 181 180 182 181
311 291 277 263 251 241 229 221 215 209 205 202 197 193 192 190 188 191 192 190 187 186 190 196 199 200 200 200 199 199 198 201 201 195 190 187 180 174 171 175 179 180
310 288 268 254 250 240 224 213 208 204 201 198 192 187 187 187 187 189 189 187 186 187 191 194 197 200 202 202 201 200 200 198 191 184 184 183 174 164 164 170 172 168
317 288 264 250 248 240 222 206 200 198 194 191 186 182 183 186 189 188 184 182 184 187 190 191 195 200 201 198 194 193 192 187 182 181 179 173 163 158 162 162 156 149
336 302 265 245 240 236 219 199 193 191 187 184 182 180 180 183 186 184 179 178 182 185 187 187 191 194 192 190 188 186 184 180 178 176 169 161 156 156 157 154 148 145
356 334 281 243 231 224 208 191 186 184 182 181 179 177 178 181 182 177 174 175 179 182 183 182 183 185 184 185 185 182 178 174 170 167 161 157 155 155 155 152 149 147
15 17 12 227 209 200 185 176 174 173 171 172 172 171 174 179 178 173 170 170 174 178 179 176 175 177 176 176 178 177 173 168 164 160 157 154 153 153 154 152 149 147
28 40 54 75 79 99 135 148 154 154 152 156 161 160 162 166 166 164 164 164 166 171 172 168 166 166 165 167 171 173 170 165 160 157 155 152 150 150 150 148 148 149
35 46 60 81 91 81 84 108 128 134 136 142 146 144 143 140 140 146 152 153 155 160 162 159 154 153 158 164 169 173 171 164 158 155 151 146 140 137 135 135 139 143
37 46 56 73 96 100 89 89 103 112 119 128 131 129 129 124 120 129 137 138 141 147 150 150 148 149 156 161 165 171 171 164 157 150 141 134 129 127 125 126 129 134
44 47 54 62 80 100 107 104 102 104 109 116 117 116 118 115 112 119 125 124 127 133 137 141 142 144 153 158 160 166 168 162 155 145 134 130 130 130 130 130 127 127
51 52 54 59 70 87 102 108 109 110 111 111 110 109 111 109 106 112 115 113 117 123 126 129 131 133 143 150 151 153 155 152 149 142 133 130 130 129 129 126 123 119
Height
794 794 794 793 790 789 789 791 793 796 796 797 797 798 799 802 803 804 805 807 810 811 813 814 815 816 817 819 821 822 824 825 827 828 830 832 834 835 837 838 839 840
793 793 793 792 789 789 789 790 792 794 795 796 797 798 799 800 802 802 803 805 808 810 812 813 814 815 816 818 819 821 822 824 826 827 829 831 832 834 835 837 838 839
791 791 791 790 790 789 788 789 790 792 794 795 796 797 798 799 801 802 803 804 806 808 810 812 814 814 815 817 818 820 821 823 825 826 828 830 831 833 834 836 837 838
788 788 788 788 789 789 788 788 790 792 793 794 794 795 797 798 800 800 801 803 804 805 807 811 813 814 815 817 818 820 821 823 824 826 827 829 830 832 833 834 836 837
786 786 785 786 786 787 788 789 791 792 792 792 793 794 795 797 798 799 799 801 802 803 804 808 813 814 814 816 817 819 820 822 824 825 826 828 829 831 832 833 834 835
785 784 784 786 786 786 786 786 787 789 789 790 791 792 794 795 796 798 799 800 801 802 803 806 812 813 813 814 815 817 819 821 822 824 825 827 828 829 831 832 833 834
783 782 784 788 788 787 786 785 784 785 786 787 789 790 792 794 795 797 798 799 800 801 803 806 810 812 812 814 815 816 818 819 821 823 824 826 827 828 829 831 832 833
783 782 784 786 787 787 787 785 783 784 784 785 786 788 790 792 794 796 798 799 799 801 803 805 808 810 811 813 814 816 817 819 820 822 823 824 826 827 829 830 831 832
784 783 781 782 785 785 785 783 783 783 784 785 786 788 790 792 794 795 797 798 799 800 802 804 807 809 811 812 813 815 817 818 819 821 822 823 825 827 828 829 830 832
783 782 779 779 782 782 781 782 782 783 784 784 786 787 789 791 792 794 796 798 798 799 801 803 806 808 810 812 813 814 816 817 818 820 821 823 824 826 827 828 829 831
780 779 778 778 778 779 781 782 782 783 784 784 785 786 788 790 791 793 796 797 798 799 800 802 805 808 810 811 813 814 815 817 818 819 820 822 824 825 826 827 829 830
778 776 776 775 776 777 778 779 780 781 782 783 783 784 786 788 790 792 794 796 798 799 800 802 804 807 809 811 813 814 815 816 817 818 820 821 823 824 826 827 828 830
777 775 774 773 774 775 775 776 777 779 780 781 782 783 785 787 789 791 794 796 798 799 800 802 804 806 808 810 812 813 814 816 817 818 819 821 822 824 825 827 828 829
775 774 773 773 774 774 774 775 776 777 778 779 781 782 785 787 788 791 793 795 797 798 799 801 803 806 808 809 811 812 814 815 816 817 819 820 822 823 825 826 828 828
774 773 772 773 773 772 772 773 774 775 776 778 780 781 783 786 788 790 792 794 796 797 798 801 803 805 807 809 810 812 813 814 815 817 818 820 821 823 825 826 827 828
773 772 771 771 770 769 770 771 772 774 775 776 778 779 782 784 787 790 792 793 794 796 798 800 802 804 807 808 810 811 812 813 815 816 817 819 820 822 824 825 827 828
772 771 770 768 767 767 769 769 769 771 773 774 776 777 780 783 786 788 790 791 793 795 798 800 802 804 806 808 809 810 811 812 814 815 817 818 820 821 823 825 826 828
771 770 769 767 766 766 766 766 767 768 770 772 774 776 779 782 786 787 788 789 792 795 798 800 802 804 806 808 809 810 811 812 814 815 816 818 819 821 823 825 826 827
770 768 767 766 765 765 765 766 766 766 769 771 774 776 778 782 785 786 787 789 792 796 798 800 802 804 806 807 809 810 811 812 814 815 817 818 820 821 823 825 826 827
770 768 766 766 765 765 765 766 766 768 770 771 773 775 778 782 785 786 787 790 793 796 798 800 802 804 806 807 809 810 811 812 814 815 817 819 820 821 823 825 826 827
772 770 767 766 766 766 766 766 767 769 771 772 774 776 779 783 785 786 788 790 793 796 799 801 802 804 806 807 809 810 811 812 814 816 817 819 820 822 823 825 826 828
775 773 770 769 769 770 768 767 768 770 771 773 775 776 780 784 786 786 789 791 794 797 799 801 802 804 806 807 809 810 812 813 814 816 818 819 821 822 824 825 827 829
779 777 774 772 772 773 773 772 770 772 773 775 777 779 782 786 787 787 789 792 795 797 798 800 803 805 806 808 809 810 812 813 815 816 818 820 822 824 825 827 829 831
784 781 779 778 776 775 778 778 775 774 776 778 780 782 785 789 790 789 790 794 796 797 799 801 804 806 807 808 809 811 812 814 815 817 819 821 823 825 828 830 831 832
788 786 785 784 782 780 781 782 780 779 780 783 785 786 788 792 793 791 792 795 797 798 800 802 805 807 808 809 810 812 813 814 815 817 820 822 824 825 829 832 833 833
792 791 790 789 788 786 785 784 784 784 785 787 788 789 791 795 797 795 795 798 799 801 803 804 806 808 809 811 812 813 815 816 817 818 820 823 825 827 829 832 834 834